| time (UTC) | temp F | wind direction | speed MPH | gust MPH | rain 1hr in | rain 24hr in | rain mn in | humidity % | barometer mb |
| 20260902080033 | 57 | 310 | 2.0 | 5.0 | 0.00 | 0.00 | 0.00 | 75 | 1012.5 |
| 20260902074534 | 59 | 265 | 3.0 | 9.0 | 0.00 | 0.00 | 0.00 | 68 | 1012.6 |
| 20260902073035 | 59 | 276 | 5.0 | 14.0 | 0.00 | 0.00 | 0.00 | 67 | 1012.6 |
| 20260902071611 | 60 | 271 | 5.0 | 14.0 | 0.00 | 0.00 | 0.00 | 66 | 1012.8 |
| 20260902070033 | 60 | 266 | 6.0 | 12.0 | 0.00 | 0.00 | 0.00 | 66 | 1013.1 |
| 20260902064536 | 61 | 269 | 5.0 | 11.0 | 0.00 | 0.00 | 0.00 | 66 | 1013.2 |
| 20260902063030 | 60 | 256 | 6.0 | 11.0 | 0.00 | 0.00 | 0.00 | 68 | 1013.4 |
| 20260902061536 | 60 | 287 | 3.0 | 10.0 | 0.00 | 0.00 | 0.00 | 68 | 1013.4 |
| 20260902060036 | 61 | 285 | 3.0 | 9.0 | 0.00 | 0.00 | 0.00 | 64 | 1013.4 |
| 20260902054534 | 61 | 267 | 5.0 | 12.0 | 0.00 | 0.00 | 0.00 | 63 | 1013.4 |
| 20260902051530 | 62 | 253 | 6.0 | 14.0 | 0.00 | 0.00 | 0.00 | 61 | 1013.2 |
| 20260902050109 | 62 | 244 | 7.0 | 18.0 | 0.00 | 0.00 | 0.00 | 62 | 1013.0 |
| 20260902044530 | 62 | 252 | 5.0 | 15.0 | 0.00 | 0.00 | 0.00 | 63 | 1012.9 |
| 20260902043109 | 62 | 245 | 5.0 | 13.0 | 0.00 | 0.00 | 0.00 | 62 | 1012.8 |
| 20260902041536 | 62 | 248 | 5.0 | 12.0 | 0.00 | 0.00 | 0.00 | 61 | 1012.6 |
| 20260902040035 | 62 | 264 | 6.0 | 14.0 | 0.00 | 0.00 | 0.00 | 61 | 1012.5 |
| 20260902034535 | 62 | 266 | 4.0 | 10.0 | 0.00 | 0.00 | 0.00 | 61 | 1012.2 |
| 20260902033034 | 62 | 277 | 5.0 | 18.0 | 0.00 | 0.00 | 0.00 | 61 | 1012.2 |
| 20260902030110 | 62 | 249 | 7.0 | 17.0 | 0.00 | 0.00 | 0.00 | 60 | 1012.4 |
| 20260902024535 | 62 | 248 | 6.0 | 18.0 | 0.00 | 0.00 | 0.00 | 60 | 1012.4 |
| 20260902023142 | 63 | 253 | 5.0 | 14.0 | 0.00 | 0.00 | 0.00 | 59 | 1012.1 |
| 20260902021537 | 63 | 258 | 5.0 | 14.0 | 0.00 | 0.00 | 0.00 | 58 | 1012.1 |
| 20260902020035 | 64 | 259 | 6.0 | 12.0 | 0.00 | 0.00 | 0.00 | 58 | 1011.9 |
| 20260902014534 | 65 | 270 | 7.0 | 18.0 | 0.00 | 0.00 | 0.00 | 56 | 1011.9 |
| 20260902013037 | 65 | 292 | 8.0 | 16.0 | 0.00 | 0.00 | 0.00 | 55 | 1011.9 |
| 20260902011609 | 67 | 265 | 9.0 | 20.0 | 0.00 | 0.00 | 0.00 | 53 | 1011.7 |
| 20260902010033 | 67 | 289 | 5.0 | 15.0 | 0.00 | 0.00 | 0.00 | 54 | 1011.6 |
| 20260902004538 | 66 | 310 | 4.0 | 15.0 | 0.00 | 0.00 | 0.00 | 61 | 1011.3 |
| 20260902001609 | 66 | 329 | 4.0 | 11.0 | 0.00 | 0.00 | 0.00 | 61 | 1011.2 |
| 20260902000037 | 66 | 334 | 6.0 | 12.0 | 0.00 | 0.00 | 0.00 | 62 | 1011.2 |
| 20260901234536 | 66 | 323 | 5.0 | 11.0 | 0.00 | 0.00 | 0.00 | 60 | 1011.4 |
| 20260901233038 | 67 | 348 | 5.0 | 10.0 | 0.00 | 0.00 | 0.00 | 60 | 1011.3 |
| 20260901230036 | 68 | 341 | 5.0 | 12.0 | 0.00 | 0.00 | 0.00 | 58 | 1011.3 |
| 20260901224538 | 70 | 343 | 7.0 | 16.0 | 0.00 | 0.00 | 0.00 | 57 | 1011.0 |
| 20260901221536 | 70 | 358 | 8.0 | 15.0 | 0.00 | 0.00 | 0.00 | 55 | 1010.9 |
| 20260901220036 | 70 | 21 | 5.0 | 11.0 | 0.00 | 0.00 | 0.00 | 57 | 1010.7 |
| 20260901214537 | 69 | 8 | 4.0 | 12.0 | 0.00 | 0.00 | 0.00 | 58 | 1010.8 |
| 20260901213108 | 68 | 22 | 5.0 | 11.0 | 0.00 | 0.00 | 0.00 | 61 | 1011.0 |
| 20260901211608 | 66 | 353 | 6.0 | 12.0 | 0.00 | 0.00 | 0.00 | 63 | 1011.1 |
| 20260901210035 | 67 | 353 | 8.0 | 16.0 | 0.00 | 0.00 | 0.00 | 61 | 1011.2 |
| 20260901203110 | 69 | 343 | 7.0 | 14.0 | 0.00 | 0.00 | 0.00 | 59 | 1011.2 |
| 20260901201640 | 69 | 348 | 5.0 | 12.0 | 0.00 | 0.00 | 0.00 | 59 | 1011.3 |
| 20260901200037 | 69 | 343 | 5.0 | 11.0 | 0.00 | 0.00 | 0.00 | 59 | 1011.4 |
| 20260901193030 | 69 | 27 | 6.0 | 11.0 | 0.00 | 0.00 | 0.00 | 59 | 1011.9 |
| 20260901191537 | 68 | 16 | 6.0 | 12.0 | 0.00 | 0.00 | 0.00 | 60 | 1012.1 |
| 20260901190036 | 68 | 23 | 5.0 | 11.0 | 0.00 | 0.00 | 0.00 | 60 | 1012.2 |
| 20260901184538 | 67 | 14 | 5.0 | 9.0 | 0.00 | 0.00 | 0.00 | 62 | 1012.3 |
| 20260901183043 | 66 | 12 | 5.0 | 10.0 | 0.00 | 0.00 | 0.00 | 63 | 1012.4 |
| 20260901181536 | 66 | 355 | 6.0 | 11.0 | 0.00 | 0.00 | 0.00 | 64 | 1012.4 |
| 20260901180035 | 66 | 20 | 5.0 | 11.0 | 0.00 | 0.00 | 0.00 | 64 | 1012.5 |
| 20260901173035 | 64 | 15 | 4.0 | 9.0 | 0.00 | 0.00 | 0.00 | 67 | 1012.6 |
| 20260901171536 | 63 | 33 | 4.0 | 8.0 | 0.00 | 0.00 | 0.00 | 71 | 1012.6 |
| 20260901164531 | 60 | 14 | 4.0 | 8.0 | 0.00 | 0.00 | 0.00 | 75 | 1012.6 |
| 20260901163032 | 60 | 42 | 3.0 | 7.0 | 0.00 | 0.00 | 0.00 | 76 | 1012.6 |
| 20260901161534 | 59 | 47 | 2.0 | 4.0 | 0.00 | 0.00 | 0.00 | 77 | 1012.6 |
| 20260901160036 | 58 | 64 | 2.0 | 4.0 | 0.00 | 0.00 | 0.00 | 79 | 1012.4 |
| 20260901154533 | 57 | 96 | 2.0 | 5.0 | 0.00 | 0.00 | 0.00 | 81 | 1012.4 |
| 20260901153111 | 56 | 42 | 2.0 | 7.0 | 0.00 | 0.00 | 0.00 | 84 | 1012.3 |
| 20260901150140 | 55 | 65 | 2.0 | 5.0 | 0.00 | 0.00 | 0.00 | 84 | 1012.2 |
| 20260901144535 | 56 | 45 | 1.0 | 4.0 | 0.00 | 0.00 | 0.00 | 83 | 1012.2 |
| 20260901143109 | 56 | 62 | 1.0 | 5.0 | 0.00 | 0.00 | 0.00 | 83 | 1012.1 |
| 20260901140038 | 54 | 342 | 1.0 | 6.0 | 0.00 | 0.00 | 0.00 | 85 | 1011.8 |
| 20260901134535 | 55 | 66 | 1.0 | 4.0 | 0.00 | 0.00 | 0.00 | 84 | 1011.6 |
| 20260901133034 | 56 | 36 | 1.0 | 6.0 | 0.00 | 0.00 | 0.00 | 83 | 1011.5 |
| 20260901131532 | 55 | 86 | 2.0 | 6.0 | 0.00 | 0.00 | 0.00 | 83 | 1011.4 |
| 20260901130030 | 56 | 104 | 2.0 | 5.0 | 0.00 | 0.00 | 0.00 | 82 | 1011.3 |
| 20260901124535 | 56 | 103 | 2.0 | 6.0 | 0.00 | 0.00 | 0.00 | 81 | 1011.3 |
| 20260901123036 | 56 | 62 | 2.0 | 5.0 | 0.00 | 0.00 | 0.00 | 80 | 1011.2 |
| 20260901120035 | 57 | 39 | 2.0 | 6.0 | 0.00 | 0.00 | 0.00 | 77 | 1011.1 |
| 20260901114536 | 57 | 102 | 2.0 | 6.0 | 0.00 | 0.00 | 0.00 | 76 | 1011.2 |
| 20260901113034 | 57 | 116 | 1.0 | 4.0 | 0.00 | 0.00 | 0.00 | 75 | 1011.1 |
| 20260901111652 | 57 | 95 | 2.0 | 5.0 | 0.00 | 0.00 | 0.00 | 75 | 1011.1 |
| 20260901110040 | 57 | 78 | 1.0 | 4.0 | 0.00 | 0.00 | 0.00 | 75 | 1011.1 |
| 20260901104609 | 57 | 127 | 0.0 | 3.0 | 0.00 | 0.00 | 0.00 | 73 | 1011.1 |
| 20260901103036 | 58 | 67 | 1.0 | 4.0 | 0.00 | 0.00 | 0.00 | 70 | 1011.0 |
| 20260901100035 | 59 | 64 | 2.0 | 6.0 | 0.00 | 0.00 | 0.00 | 65 | 1011.0 |
| 20260901094536 | 60 | 121 | 2.0 | 4.0 | 0.00 | 0.00 | 0.00 | 62 | 1011.0 |
| 20260901093035 | 59 | 81 | 3.0 | 8.0 | 0.00 | 0.00 | 0.00 | 65 | 1011.0 |
| 20260901091536 | 58 | 93 | 2.0 | 5.0 | 0.00 | 0.00 | 0.00 | 66 | 1011.0 |
| 20260901090037 | 57 | 127 | 1.0 | 3.0 | 0.00 | 0.00 | 0.00 | 67 | 1010.8 |
| 20260901083034 | 57 | 131 | 1.0 | 2.0 | 0.00 | 0.00 | 0.00 | 66 | 1011.1 |